Location: Newark
(35.2672°N, 80.7344°W)
Time: 17:27:58
(UTC+00:00)

Tiros 1 - Pass Details

Date: 21 January 2020
Orbit: 631 x 664 km, 48.4° (Epoch: 23 February)

Event Time Altitude Azimuth Distance (km) Brightness Sun altitude
Rises 03:15:15 0° 294° (WNW) 2,991 - -55.9°
Reaches altitude 10° 03:18:00 10° 280° (W) 2,077 - -56.5°
Maximum altitude 03:21:44 23° 229° (SW) 1,404 - -57.2°
Drops below altitude 10° 03:25:28 10° 177° (S) 2,068 - -57.9°
Sets 03:28:12 0° 163° (SSE) 2,974 - -58.4°
